NOAA NWS Hourly Roundups by Site

Regional Weather Roundup for San Diego, CA

To Select Another Site Choose from List

Select Site:  

000
ASUS46 KSGX 260510
RWRSGX

SAN DIEGO HOURLY WEATHER ROUNDUP
NATIONAL WEATHER SERVICE SAN DIEGO CA
900 PM PST SUN FEB 25 2024

NOTE: "FAIR" INDICATES FEW OR NO CLOUDS BELOW 12,000 FEET WITH NO
SIGNIFICANT WEATHER AND/OR OBSTRUCTIONS TO VISIBILITY.

CAZ042-043-060-061-PZZ750-775-260600-

GREATER SAN DIEGO AREA

CITY           SKY/WX    TMP DP  RH WIND       PRES   REMARKS
SAN DIEGO AP   MOCLDY    60  56  86 NW5       30.08R
BROWN FIELD    MOCLDY    57  54  89 W7        30.06R FOG
MIRAMAR MCAS   CLOUDY    54  54 100 NW7       30.06S
MONTGOMERY FLD MOCLDY    58  54  86 NW6       30.07R
GILLESPIE FLD  MOCLDY    57  54  88 W10       30.05R
LEMON GROVE      N/A     57  54  90 W3        30.04R

$$

NORTH SAN DIEGO COUNTY

CITY           SKY/WX    TMP DP  RH WIND       PRES   REMARKS
CAMP PENDLETON MOCLDY    60  49  66 S3        30.05S
OCEANSIDE AP   PTCLDY    57  53  86 SW5       30.05R
OCEANSIDE HBR    N/A     58  55  88 SW7       30.12R
VISTA            N/A     56  53  88 CALM      30.05R
CARLSBAD       PTCLDY    56  53  90 CALM      30.05S
ENCINITAS        N/A     56  54  93 CALM        N/A
LA JOLLA SCRIP   N/A     58  50  75 CALM      30.07R
FALLBROOK      MOCLDY    52  52 100 CALM      30.06S
ESCONDIDO        N/A     58  53  83 CALM      30.05R
SAN MARCOS       N/A     56  53  87 CALM      30.03S
RANCHO BERNARD   N/A     56  52  88 CALM      30.04R
POWAY            N/A     56  53  89 N1        30.07R

$$

EAST SAN DIEGO COUNTY

CITY           SKY/WX    TMP DP  RH WIND       PRES   REMARKS
RAMONA         PTCLDY    53  47  79 CALM      30.04S
SANTEE           N/A     58  54  86 CALM      30.02R
LA MESA          N/A     57  53  88 W3        29.99R
EL CAJON         N/A     59  55  85 NE3       29.93R
ALPINE           N/A     56  48  74 NE3       30.22F
DESCANSO N       N/A     50  32  50 NE6       30.09S

$$

ORANGE COUNTY AND THE LOS ANGELES BASIN

CITY           SKY/WX    TMP DP  RH WIND       PRES   REMARKS
JOHN WAYNE AP  CLOUDY    59  53  80 CALM      30.07R
LAGUNA BEACH     N/A     55  53  93 CALM      30.06R
LAKE FOREST FR   N/A     55  49  82 CALM      29.93R
SANTA ANA        N/A     58  54  88 CALM      30.05R
HUNTINGTON BCH   N/A     57  54  91 CALM      30.06R
LOS ALAMITOS   MOCLDY    56  53  87 NW5       30.03R
FULLERTON      MOCLDY    58  55  90 CALM      30.06R
LONG BEACH     MOCLDY    60  53  77 NW3       30.07R
L.A. AP        MOCLDY    56  53  90 W7        30.07R
L.A. DOWNTOWN  PTCLDY    58  53  84 CALM      30.07R

$$

THE INLAND EMPIRE

CITY           SKY/WX    TMP DP  RH WIND       PRES   REMARKS
CORONA         CLOUDY    57  49  74 W6        30.07R
UPLAND AP      FAIR      55  48  76 W6        30.06R
CHINO          MOCLDY    54  49  83 W6        30.07R
ONTARIO        MOCLDY    55  45  68 W7        30.06R
SAN BERNARDINO CLEAR     59  43  55 CALM      30.06R
RIVERSIDE AP   CLOUDY    55  48  77 W5        30.06R
MORENO VALLEY    N/A     58  49  72 CALM      28.29R
MARCH ARB      CLOUDY    55  48  77 NW3       30.05R
HORSETHIEF CYN   N/A     54  42  64 CALM      30.04R
LAKE ELSINORE    N/A     57  50  77 CALM      29.99R
HEMET AP       FAIR      54  47  76 W3        30.06R
FRENCH VALLEY  MOCLDY    55  45  67 S3        30.06R
TEMECULA         N/A     58  49  73 SE1       30.04R

$$

SAN BERNARDINO AND RIVERSIDE COUNTY MOUNTAINS

CITY           SKY/WX    TMP DP  RH WIND       PRES   REMARKS
BIG BEAR AP    MOCLDY    39  18  41 W10       30.16S WCI  32
BIG BEAR LAKE    N/A     42  19  40 SW8       30.10S
WRIGHTWOOD       N/A     47  15  27 SW1       29.93R
ANGELUS OAKS     N/A     41  23  48 CALM      30.00S
IDYLLWILD        N/A     42  31  66 CALM      30.00R

$$

SOUTHERN DESERT INCLUDING THE COACHELLA VALLEY

CITY           SKY/WX    TMP DP  RH WIND       PRES   REMARKS
PALM SPRINGS   MOCLDY    65  43  44 CALM      29.99R
THOUSAND PALMS   N/A     67  44  42 SE3       29.93R
INDIO            N/A     70  44  38 NW3       29.96R
THERMAL        CLOUDY    65  44  46 N3        29.96R
BORREGO AP     MOCLDY    68  34  28 NE6       29.99R
OCOTILLO WELLS   N/A     72  37  27 W1        29.93R
CANEBRAKE        N/A     66  38  35 CALM      29.94R
BLYTHE         CLOUDY    70  38  31 CALM      29.97R
EL CENTRO NAS  CLOUDY    69  46  43 W6        29.99R
YUMA AZ        CLOUDY    69  43  38 CALM      29.97R

$$

UPPER DESERT

CITY           SKY/WX    TMP DP  RH WIND       PRES   REMARKS
VICTORVILLE AP MOCLDY    54  36  50 S12       30.07R
HESPERIA         N/A     57  29  34 SW6       29.86R
PALMDALE       PTCLDY    53  38  56 W6        30.06R
LANCASTER      PTCLDY    54  41  61 VRB6      30.06R
EDWARDS AFB    PTCLDY    54  37  54 W10       30.02R
GRAY BUTTE AP  MOCLDY    47  34  60 VRB3      30.03R
DAGGETT        MOCLDY    54  40  59 CALM      30.01S
29 PALMS N     CLOUDY    59  37  44 CALM      30.08R
29 PALMS JTNP    N/A     64  35  33 CALM      29.94S
NEEDLES        CLOUDY    66  37  34 S5        29.98S

$$

REGIONAL REPORTS

CITY           SKY/WX    TMP DP  RH WIND       PRES   REMARKS
SANTA BARBARA  CLEAR     54  52  93 CALM      30.04F
SANDBERG       CLEAR     48  35  60 S9        30.10R
LAS VEGAS NV   MOCLDY    60  33  36 S6        29.97F
PHOENIX AZ     CLOUDY    72  40  31 CALM      29.98R
TIJUANA        CLOUDY    55  54  94 W8        30.07
ENSENADA NW      N/A     63  32  31 W2        29.82F

$$

OFFSHORE ISLANDS

CITY           SKY/WX    TMP DP  RH WIND       PRES   REMARKS
CATALINA ARPT  MOCLDY    51  50  96 CALM      30.07F FOG
SAN NICOLAS IS MOCLDY    51  49  92 W9        30.06S

$$

MARINE AND OFFSHORE BUOY REPORTS

STATION/POSITION SKY/WX   TEMP    WIND        PRES    VSBY  SWELL
                          AIR SEA DIR/SP/G                  HT/PER/DIR
                          (F)     (DEG/KT/KT) (MB)    (MI)  (FT/S/D)
TANNER BANKS               59 60  230/  4/  6 1018.1R         7/290/19
S CLEMENTE BASIN           58 60  280/  8/ 10 1017.2R
SAN NICOLAS IS.               60                N/A           7/310/20
SO. S. ROSA ISLA           58 58  290/  6/  8 1017.2R         7/290/19
W. S. BARBARA CH           58 60  300/ 12/ 14 1016.9S         5/280/19
M. S. BARBARA CH           58 59  260/  8/ 10 1016.4S
S. MONICA BASIN            58 60  290/  4/  6 1018.0F
S PEDRO CHANNEL               60                N/A           2/270/11
OCEANSIDE OFFSHR              60                N/A           2/200/17
TORREY PINES OTR              61                N/A           3/240/13
SAN DIEGO BAY                 61              1017.3
IMPERIAL BEACH                59                N/A           2/260/13
POINT LOMA SOUTH                                N/A           3/250/13

$$



 

View Past Reports for San Diego, CA.

Products Courtesy of NOAA-NWS
NWS Information Parsing Script by Ken True at Saratoga Weather - Script by SE Lincoln Weather.